QPF
0.20 0.21 0.21 0.15 0.12 0.11 0.08 0.05 0.03 0.03 0.03 0.02 0.01 0.01 0.01 0.02 0.01 0.01 0.01 0.03 0.03 0.03 0.05 0.06 0.08 0.13 0.10 0.06 0.07 0.06 0.04 0.02 0.02 0.01 0.02 0.03 0.02 0.01 0.00 0.00 0.00 0.00 0.00
0.18 0.19 0.17 0.12 0.10 0.12 0.11 0.08 0.06 0.06 0.06 0.03 0.02 0.01 0.02 0.04 0.03 0.02 0.02 0.00 0.00 0.00 0.00 0.00 0.01 0.05 0.07 0.09 0.09 0.07 0.04 0.03 0.02 0.02 0.02 0.02 0.02 0.01 0.01 0.00 0.00 0.00 0.00
0.22 0.17 0.15 0.13 0.13 0.13 0.11 0.10 0.07 0.09 0.11 0.09 0.05 0.03 0.04 0.05 0.05 0.02 0.01 0.00 0.00 0.00 0.00 0.00 0.01 0.01 0.04 0.07 0.10 0.11 0.08 0.04 0.03 0.03 0.04 0.05 0.04 0.03 0.02 0.00 0.00 0.00 0.00
0.47 0.30 0.19 0.18 0.18 0.16 0.12 0.08 0.10 0.12 0.14 0.14 0.09 0.04 0.05 0.07 0.08 0.05 0.02 0.01 0.00 0.00 0.00 0.00 0.01 0.01 0.02 0.04 0.07 0.12 0.14 0.11 0.07 0.05 0.04 0.05 0.06 0.06 0.04 0.01 0.00 0.00 0.00
0.32 0.17 0.13 0.13 0.13 0.08 0.04 0.02 0.04 0.07 0.09 0.11 0.08 0.05 0.07 0.11 0.11 0.06 0.04 0.01 0.00 0.00 0.00 0.00 0.00 0.01 0.01 0.02 0.03 0.06 0.08 0.09 0.08 0.07 0.05 0.03 0.03 0.04 0.04 0.02 0.01 0.00 0.00
0.12 0.09 0.07 0.05 0.03 0.01 0.01 0.01 0.00 0.01 0.02 0.08 0.07 0.06 0.06 0.10 0.12 0.08 0.07 0.05 0.02 0.00 0.00 0.00 0.00 0.00 0.01 0.02 0.03 0.04 0.04 0.04 0.05 0.05 0.05 0.04 0.03 0.05 0.06 0.04 0.01 0.00 0.00
0.03 0.02 0.02 0.02 0.03 0.02 0.03 0.02 0.02 0.02 0.02 0.05 0.05 0.08 0.10 0.07 0.06 0.05 0.12 0.14 0.06 0.02 0.00 0.00 0.00 0.00 0.00 0.01 0.02 0.04 0.04 0.04 0.04 0.03 0.02 0.02 0.04 0.05 0.05 0.04 0.02 0.01 0.00
0.01 0.01 0.01 0.01 0.02 0.03 0.04 0.03 0.02 0.01 0.02 0.06 0.06 0.12 0.11 0.06 0.04 0.04 0.08 0.07 0.04 0.03 0.01 0.01 0.00 0.00 0.00 0.00 0.00 0.01 0.01 0.02 0.03 0.01 0.01 0.02 0.04 0.05 0.06 0.06 0.04 0.01 0.01
0.00 0.00 0.00 0.00 0.00 0.01 0.01 0.01 0.00 0.00 0.01 0.04 0.07 0.09 0.05 0.02 0.01 0.02 0.02 0.02 0.02 0.03 0.02 0.01 0.01 0.00 0.00 0.00 0.00 0.00 0.00 0.01 0.02 0.02 0.03 0.05 0.08 0.12 0.12 0.11 0.10 0.06 0.03
0.00 0.00 0.00 0.00 0.00 0.00 0.00 0.00 0.00 0.00 0.00 0.01 0.03 0.04 0.03 0.03 0.01 0.01 0.01 0.03 0.03 0.04 0.03 0.02 0.01 0.01 0.01 0.01 0.00 0.02 0.03 0.03 0.03 0.06 0.09 0.13 0.15 0.18 0.21 0.18 0.16 0.13 0.08
0.00 0.00 0.00 0.00 0.00 0.00 0.00 0.00 0.00 0.00 0.00 0.00 0.00 0.00 0.01 0.01 0.01 0.01 0.01 0.02 0.02 0.02 0.01 0.01 0.01 0.01 0.01 0.02 0.03 0.05 0.08 0.05 0.04 0.06 0.12 0.18 0.18 0.14 0.15 0.18 0.16 0.14 0.12
0.00 0.00 0.00 0.00 0.00 0.00 0.00 0.00 0.00 0.00 0.00 0.00 0.00 0.00 0.00 0.00 0.00 0.00 0.00 0.00 0.00 0.00 0.00 0.00 0.00 0.00 0.01 0.02 0.04 0.06 0.07 0.04 0.03 0.03 0.04 0.06 0.08 0.07 0.05 0.05 0.07 0.07 0.07
0.00 0.00 0.00 0.00 0.00 0.00 0.00 0.00 0.00 0.00 0.00 0.00 0.00 0.00 0.00 0.00 0.00 0.00 0.00 0.00 0.00 0.00 0.00 0.00 0.00 0.00 0.00 0.01 0.02 0.03 0.06 0.05 0.04 0.02 0.01 0.01 0.01 0.01 0.01 0.01 0.01 0.01 0.01
0.00 0.00 0.00 0.00 0.00 0.00 0.00 0.00 0.00 0.00 0.00 0.00 0.00 0.00 0.00 0.00 0.00 0.00 0.00 0.00 0.00 0.00 0.00 0.00 0.01 0.01 0.01 0.01 0.02 0.03 0.05 0.05 0.04 0.02 0.00 0.00 0.00 0.00 0.00 0.00 0.00 0.00 0.00
0.00 0.00 0.00 0.00 0.00 0.00 0.00 0.00 0.00 0.00 0.00 0.00 0.00 0.00 0.00 0.00 0.00 0.01 0.01 0.02 0.03 0.03 0.02 0.02 0.03 0.04 0.03 0.03 0.04 0.03 0.03 0.02 0.01 0.00 0.00 0.00 0.00 0.00 0.00 0.00 0.00 0.00 0.00
0.00 0.00 0.00 0.00 0.00 0.00 0.00 0.00 0.00 0.00 0.00 0.00 0.00 0.00 0.00 0.00 0.01 0.03 0.06 0.05 0.06 0.04 0.03 0.03 0.08 0.12 0.08 0.07 0.07 0.06 0.05 0.03 0.02 0.00 0.00 0.00 0.00 0.01 0.01 0.01 0.01 0.02 0.02
0.00 0.00 0.00 0.00 0.00 0.00 0.00 0.00 0.00 0.00 0.00 0.00 0.00 0.00 0.00 0.01 0.02 0.03 0.05 0.07 0.09 0.14 0.09 0.08 0.18 0.20 0.12 0.10 0.09 0.07 0.05 0.03 0.01 0.00 0.00 0.00 0.00 0.00 0.00 0.01 0.01 0.01 0.01
0.00 0.00 0.00 0.00 0.00 0.00 0.00 0.00 0.00 0.00 0.00 0.00 0.00 0.00 0.00 0.00 0.01 0.02 0.03 0.06 0.11 0.16 0.15 0.19 0.26 0.28 0.24 0.15 0.08 0.03 0.02 0.01 0.00 0.00 0.00 0.00 0.00 0.00 0.00 0.00 0.00 0.00 0.00
0.00 0.00 0.00 0.00 0.00 0.00 0.00 0.00 0.00 0.00 0.00 0.00 0.00 0.00 0.00 0.00 0.00 0.01 0.02 0.04 0.06 0.07 0.12 0.18 0.24 0.28 0.23 0.11 0.03 0.01 0.00 0.00 0.00 0.00 0.00 0.00 0.00 0.00 0.00 0.00 0.00 0.00 0.00
0.00 0.00 0.00 0.00 0.00 0.00 0.00 0.00 0.00 0.00 0.00 0.00 0.00 0.00 0.00 0.00 0.00 0.00 0.00 0.01 0.02 0.03 0.03 0.05 0.07 0.07 0.04 0.02 0.00 0.00 0.00 0.00 0.00 0.00 0.00 0.00 0.00 0.00 0.00 0.00 0.00 0.00 0.00
0.00 0.00 0.00 0.00 0.00 0.00 0.00 0.00 0.00 0.00 0.00 0.00 0.00 0.00 0.00 0.00 0.00 0.00 0.00 0.00 0.01 0.01 0.01 0.01 0.01 0.00 0.00 0.00 0.00 0.00 0.00 0.00 0.00 0.00 0.00 0.00 0.00 0.00 0.00 0.00 0.00 0.00 0.00
0.00 0.00 0.00 0.00 0.00 0.00 0.00 0.00 0.00 0.00 0.00 0.00 0.00 0.00 0.00 0.00 0.00 0.00 0.00 0.01 0.00 0.00 0.00 0.01 0.00 0.00 0.00 0.00 0.00 0.00 0.00 0.00 0.00 0.00 0.00 0.00 0.00 0.00 0.00 0.00 0.00 0.00 0.00
0.00 0.00 0.00 0.00 0.00 0.00 0.00 0.00 0.00 0.00 0.00 0.00 0.00 0.00 0.00 0.00 0.00 0.00 0.00 0.01 0.01 0.00 0.00 0.00 0.00 0.00 0.00 0.00 0.00 0.00 0.00 0.00 0.00 0.00 0.00 0.01 0.01 0.01 0.00 0.00 0.00 0.00 0.00
0.00 0.00 0.00 0.00 0.00 0.00 0.00 0.00 0.00 0.00 0.00 0.00 0.00 0.00 0.00 0.00 0.00 0.00 0.00 0.00 0.00 0.00 0.00 0.00 0.00 0.00 0.00 0.00 0.00 0.00 0.00 0.00 0.00 0.00 0.00 0.01 0.01 0.01 0.00 0.00 0.01 0.00 0.00
0.00 0.00 0.00 0.00 0.00 0.00 0.00 0.00 0.00 0.00 0.00 0.00 0.00 0.00 0.00 0.00 0.00 0.00 0.00 0.00 0.00 0.00 0.00 0.00 0.00 0.00 0.00 0.00 0.00 0.00 0.01 0.01 0.01 0.00 0.00 0.00 0.01 0.01 0.01 0.01 0.01 0.00 0.00
0.00 0.00 0.00 0.00 0.00 0.00 0.00 0.00 0.00 0.00 0.00 0.00 0.00 0.00 0.00 0.00 0.00 0.00 0.00 0.00 0.00 0.00 0.00 0.00 0.00 0.00 0.00 0.00 0.00 0.00 0.00 0.00 0.00 0.00 0.00 0.00 0.00 0.00 0.00 0.00 0.00 0.00 0.00
MSLP
1011.89 1012.03 1012.13 1012.18 1012.20 1012.23 1012.27 1012.36 1012.49 1012.68 1012.91 1013.16 1013.42 1013.67 1013.90 1014.11 1014.30 1014.45 1014.59 1014.71 1014.81 1014.90 1014.97 1015.03 1015.08 1015.14 1015.21 1015.30 1015.43 1015.60 1015.78 1015.99 1016.20 1016.38 1016.55 1016.67 1016.78 1016.86 1016.95 1017.06 1017.21 1017.40 1017.62
1011.69 1011.76 1011.81 1011.83 1011.86 1011.89 1011.97 1012.08 1012.25 1012.45 1012.68 1012.93 1013.18 1013.41 1013.63 1013.83 1014.01 1014.17 1014.32 1014.46 1014.58 1014.67 1014.74 1014.78 1014.79 1014.80 1014.82 1014.86 1014.95 1015.09 1015.27 1015.50 1015.74 1015.99 1016.21 1016.40 1016.55 1016.67 1016.77 1016.88 1017.02 1017.18 1017.38
1011.52 1011.54 1011.56 1011.58 1011.62 1011.67 1011.77 1011.91 1012.08 1012.28 1012.50 1012.72 1012.93 1013.12 1013.30 1013.47 1013.64 1013.81 1013.97 1014.14 1014.28 1014.40 1014.49 1014.54 1014.55 1014.54 1014.53 1014.54 1014.59 1014.71 1014.89 1015.12 1015.39 1015.67 1015.94 1016.17 1016.36 1016.50 1016.61 1016.71 1016.82 1016.95 1017.11
1011.50 1011.50 1011.50 1011.52 1011.56 1011.63 1011.74 1011.88 1012.05 1012.22 1012.40 1012.56 1012.71 1012.84 1012.96 1013.08 1013.22 1013.38 1013.55 1013.74 1013.93 1014.09 1014.21 1014.29 1014.33 1014.32 1014.31 1014.31 1014.35 1014.45 1014.62 1014.84 1015.12 1015.41 1015.70 1015.96 1016.16 1016.31 1016.42 1016.51 1016.58 1016.68 1016.81
1011.71 1011.69 1011.68 1011.70 1011.74 1011.81 1011.91 1012.04 1012.17 1012.30 1012.41 1012.50 1012.56 1012.61 1012.65 1012.72 1012.81 1012.94 1013.12 1013.32 1013.54 1013.75 1013.92 1014.05 1014.12 1014.15 1014.15 1014.15 1014.18 1014.26 1014.41 1014.62 1014.88 1015.17 1015.45 1015.71 1015.92 1016.07 1016.18 1016.25 1016.30 1016.37 1016.45
1012.17 1012.14 1012.12 1012.12 1012.15 1012.20 1012.28 1012.36 1012.44 1012.50 1012.54 1012.54 1012.52 1012.48 1012.44 1012.43 1012.47 1012.57 1012.73 1012.94 1013.18 1013.43 1013.65 1013.82 1013.93 1014.00 1014.02 1014.02 1014.04 1014.10 1014.22 1014.40 1014.63 1014.89 1015.15 1015.40 1015.60 1015.75 1015.86 1015.92 1015.96 1016.00 1016.06
1012.86 1012.80 1012.76 1012.74 1012.73 1012.75 1012.78 1012.81 1012.84 1012.83 1012.79 1012.71 1012.60 1012.48 1012.36 1012.29 1012.26 1012.32 1012.45 1012.65 1012.90 1013.16 1013.41 1013.61 1013.76 1013.85 1013.89 1013.90 1013.91 1013.95 1014.03 1014.16 1014.34 1014.56 1014.80 1015.02 1015.21 1015.36 1015.46 1015.53 1015.57 1015.61 1015.65
1013.69 1013.60 1013.52 1013.46 1013.41 1013.38 1013.36 1013.34 1013.31 1013.24 1013.14 1013.00 1012.82 1012.63 1012.46 1012.32 1012.24 1012.25 1012.34 1012.50 1012.73 1012.98 1013.23 1013.45 1013.61 1013.71 1013.76 1013.77 1013.77 1013.78 1013.82 1013.90 1014.03 1014.21 1014.40 1014.59 1014.78 1014.92 1015.04 1015.12 1015.17 1015.22 1015.26
1014.52 1014.41 1014.30 1014.19 1014.10 1014.02 1013.95 1013.89 1013.80 1013.70 1013.56 1013.38 1013.17 1012.94 1012.72 1012.54 1012.41 1012.36 1012.39 1012.51 1012.69 1012.90 1013.12 1013.32 1013.48 1013.58 1013.62 1013.63 1013.61 1013.59 1013.60 1013.64 1013.73 1013.86 1014.01 1014.18 1014.35 1014.50 1014.63 1014.73 1014.81 1014.87 1014.93
1015.26 1015.13 1014.99 1014.85 1014.72 1014.60 1014.50 1014.39 1014.29 1014.16 1014.01 1013.82 1013.60 1013.35 1013.11 1012.90 1012.73 1012.62 1012.59 1012.64 1012.74 1012.90 1013.06 1013.22 1013.35 1013.43 1013.47 1013.46 1013.44 1013.41 1013.40 1013.41 1013.47 1013.56 1013.69 1013.84 1014.00 1014.15 1014.30 1014.42 1014.53 1014.61 1014.68
1015.81 1015.67 1015.52 1015.37 1015.22 1015.08 1014.95 1014.84 1014.73 1014.60 1014.46 1014.28 1014.07 1013.84 1013.59 1013.35 1013.14 1012.98 1012.88 1012.84 1012.86 1012.93 1013.02 1013.12 1013.21 1013.26 1013.29 1013.29 1013.27 1013.25 1013.24 1013.25 1013.29 1013.37 1013.48 1013.62 1013.77 1013.93 1014.09 1014.23 1014.35 1014.46 1014.54
1016.14 1016.02 1015.87 1015.72 1015.57 1015.44 1015.32 1015.21 1015.11 1015.00 1014.88 1014.73 1014.54 1014.33 1014.08 1013.83 1013.59 1013.37 1013.19 1013.06 1012.99 1012.96 1012.97 1013.00 1013.04 1013.08 1013.10 1013.12 1013.12 1013.13 1013.14 1013.17 1013.22 1013.31 1013.42 1013.55 1013.70 1013.86 1014.02 1014.17 1014.30 1014.42 1014.50
1016.26 1016.17 1016.05 1015.93 1015.81 1015.70 1015.60 1015.51 1015.44 1015.36 1015.26 1015.14 1014.98 1014.78 1014.54 1014.27 1013.99 1013.72 1013.46 1013.25 1013.08 1012.96 1012.88 1012.85 1012.85 1012.87 1012.91 1012.95 1013.00 1013.06 1013.12 1013.19 1013.28 1013.38 1013.50 1013.63 1013.78 1013.93 1014.08 1014.22 1014.35 1014.46 1014.55
1016.20 1016.15 1016.10 1016.02 1015.95 1015.87 1015.81 1015.76 1015.71 1015.66 1015.59 1015.49 1015.35 1015.16 1014.92 1014.63 1014.32 1014.00 1013.68 1013.38 1013.13 1012.93 1012.79 1012.70 1012.67 1012.69 1012.75 1012.83 1012.94 1013.06 1013.18 1013.31 1013.44 1013.58 1013.71 1013.85 1013.98 1014.12 1014.25 1014.37 1014.47 1014.57 1014.63
1016.02 1016.04 1016.05 1016.04 1016.02 1016.00 1015.99 1015.97 1015.95 1015.92 1015.86 1015.78 1015.64 1015.45 1015.21 1014.91 1014.58 1014.21 1013.84 1013.49 1013.18 1012.92 1012.72 1012.61 1012.56 1012.58 1012.66 1012.79 1012.96 1013.14 1013.33 1013.52 1013.70 1013.86 1014.01 1014.15 1014.26 1014.37 1014.47 1014.55 1014.63 1014.69 1014.73
1015.80 1015.88 1015.95 1016.02 1016.07 1016.11 1016.14 1016.16 1016.16 1016.15 1016.10 1016.01 1015.88 1015.69 1015.44 1015.14 1014.79 1014.41 1014.01 1013.63 1013.29 1012.99 1012.78 1012.64 1012.59 1012.62 1012.73 1012.89 1013.11 1013.34 1013.59 1013.82 1014.03 1014.22 1014.37 1014.49 1014.58 1014.65 1014.70 1014.74 1014.77 1014.79 1014.80
1015.59 1015.72 1015.87 1016.00 1016.12 1016.22 1016.30 1016.35 1016.37 1016.36 1016.31 1016.22 1016.08 1015.89 1015.65 1015.35 1015.01 1014.64 1014.25 1013.87 1013.53 1013.24 1013.01 1012.87 1012.82 1012.86 1012.98 1013.17 1013.41 1013.67 1013.94 1014.19 1014.41 1014.60 1014.73 1014.83 1014.88 1014.91 1014.91 1014.90 1014.88 1014.85 1014.82
1015.41 1015.60 1015.80 1016.01 1016.19 1016.35 1016.46 1016.54 1016.58 1016.57 1016.52 1016.42 1016.28 1016.10 1015.87 1015.60 1015.29 1014.96 1014.61 1014.27 1013.96 1013.69 1013.49 1013.36 1013.32 1013.36 1013.47 1013.65 1013.88 1014.13 1014.39 1014.62 1014.83 1014.98 1015.09 1015.14 1015.15 1015.13 1015.08 1015.02 1014.94 1014.88 1014.81
1015.29 1015.52 1015.78 1016.04 1016.28 1016.48 1016.64 1016.74 1016.79 1016.78 1016.73 1016.63 1016.50 1016.33 1016.14 1015.91 1015.66 1015.39 1015.12 1014.85 1014.60 1014.38 1014.21 1014.10 1014.06 1014.08 1014.17 1014.32 1014.50 1014.70 1014.91 1015.10 1015.25 1015.36 1015.41 1015.42 1015.38 1015.31 1015.21 1015.10 1014.99 1014.88 1014.77
1015.22 1015.48 1015.78 1016.10 1016.39 1016.63 1016.82 1016.94 1017.00 1017.00 1016.95 1016.86 1016.74 1016.60 1016.45 1016.29 1016.11 1015.93 1015.75 1015.57 1015.40 1015.25 1015.12 1015.03 1014.99 1014.98 1015.03 1015.11 1015.22 1015.34 1015.46 1015.57 1015.65 1015.69 1015.70 1015.65 1015.57 1015.46 1015.32 1015.18 1015.03 1014.88 1014.75
1015.19 1015.48 1015.82 1016.17 1016.50 1016.78 1016.99 1017.13 1017.20 1017.20 1017.16 1017.08 1016.98 1016.88 1016.78 1016.69 1016.61 1016.53 1016.45 1016.37 1016.29 1016.20 1016.13 1016.06 1016.00 1015.96 1015.94 1015.94 1015.95 1015.97 1016.00 1016.01 1016.01 1015.98 1015.92 1015.84 1015.72 1015.58 1015.43 1015.26 1015.10 1014.93 1014.77
1015.19 1015.50 1015.87 1016.25 1016.60 1016.91 1017.14 1017.29 1017.37 1017.38 1017.34 1017.28 1017.21 1017.14 1017.10 1017.08 1017.08 1017.10 1017.12 1017.14 1017.14 1017.13 1017.10 1017.05 1016.98 1016.89 1016.80 1016.71 1016.63 1016.54 1016.46 1016.38 1016.30 1016.21 1016.10 1015.99 1015.86 1015.72 1015.56 1015.40 1015.23 1015.06 1014.89
1015.20 1015.52 1015.90 1016.30 1016.67 1016.99 1017.23 1017.39 1017.48 1017.50 1017.47 1017.42 1017.37 1017.35 1017.35 1017.39 1017.47 1017.57 1017.68 1017.79 1017.87 1017.92 1017.92 1017.88 1017.80 1017.68 1017.53 1017.36 1017.18 1017.00 1016.83 1016.67 1016.52 1016.38 1016.25 1016.12 1016.00 1015.87 1015.74 1015.60 1015.45 1015.29 1015.12
1015.18 1015.51 1015.89 1016.30 1016.68 1017.01 1017.26 1017.43 1017.51 1017.54 1017.52 1017.49 1017.46 1017.47 1017.51 1017.61 1017.74 1017.91 1018.09 1018.26 1018.40 1018.50 1018.54 1018.51 1018.41 1018.26 1018.06 1017.83 1017.58 1017.33 1017.09 1016.87 1016.68 1016.52 1016.38 1016.27 1016.17 1016.08 1015.99 1015.89 1015.77 1015.64 1015.48
1015.12 1015.44 1015.82 1016.22 1016.61 1016.94 1017.19 1017.37 1017.47 1017.51 1017.50 1017.49 1017.48 1017.51 1017.58 1017.71 1017.89 1018.10 1018.33 1018.55 1018.74 1018.86 1018.93 1018.91 1018.81 1018.64 1018.42 1018.14 1017.85 1017.56 1017.28 1017.04 1016.83 1016.67 1016.54 1016.46 1016.40 1016.36 1016.32 1016.27 1016.20 1016.10 1015.97
1015.01 1015.31 1015.68 1016.07 1016.45 1016.78 1017.04 1017.23 1017.35 1017.40 1017.42 1017.42 1017.44 1017.49 1017.60 1017.75 1017.96 1018.20 1018.45 1018.70 1018.91 1019.07 1019.15 1019.14 1019.05 1018.88 1018.65 1018.37 1018.06 1017.75 1017.47 1017.22 1017.02 1016.87 1016.78 1016.73 1016.72 1016.72 1016.74 1016.74 1016.71 1016.65 1016.55
Thickness
5690 5691 5691 5692 5693 5694 5695 5696 5695 5693 5690 5685 5681 5676 5673 5672 5671 5670 5668 5667 5666 5666 5666 5663 5663 5664 5663 5663 5663 5663 5663 5663 5663 5668 5671 5674 5676 5676 5677 5677 5677 5677 5678
5689 5690 5691 5692 5693 5693 5693 5692 5690 5688 5684 5680 5676 5672 5668 5667 5666 5665 5663 5662 5662 5662 5662 5660 5660 5662 5662 5663 5663 5664 5664 5665 5665 5665 5668 5670 5672 5674 5674 5674 5674 5675 5675
5689 5690 5690 5691 5691 5690 5689 5687 5684 5681 5677 5674 5671 5668 5666 5664 5662 5662 5661 5660 5660 5659 5659 5659 5658 5658 5659 5660 5662 5664 5665 5666 5665 5664 5665 5667 5668 5670 5670 5670 5670 5672 5673
5690 5691 5689 5688 5687 5685 5683 5680 5678 5674 5671 5669 5666 5664 5662 5661 5659 5658 5658 5657 5656 5656 5656 5657 5657 5657 5657 5658 5660 5662 5664 5665 5665 5663 5663 5663 5664 5665 5666 5666 5666 5667 5669
5686 5685 5684 5683 5681 5678 5676 5675 5673 5669 5666 5663 5660 5659 5658 5657 5656 5655 5654 5654 5653 5652 5652 5653 5655 5657 5657 5657 5657 5659 5661 5662 5662 5662 5661 5660 5660 5660 5662 5663 5663 5664 5666
5678 5678 5678 5676 5675 5673 5672 5670 5667 5664 5661 5659 5657 5656 5655 5655 5656 5654 5651 5650 5649 5648 5647 5648 5649 5652 5654 5654 5654 5654 5655 5656 5656 5656 5655 5656 5657 5658 5658 5657 5658 5658 5660
5669 5670 5671 5671 5670 5667 5665 5662 5660 5657 5656 5656 5654 5653 5652 5651 5651 5651 5649 5646 5644 5643 5642 5642 5643 5645 5646 5646 5647 5648 5649 5650 5651 5650 5650 5651 5652 5653 5652 5651 5653 5655 5657
5659 5659 5660 5660 5659 5657 5655 5652 5650 5649 5648 5648 5647 5647 5646 5645 5646 5646 5645 5642 5639 5638 5637 5637 5636 5637 5637 5639 5640 5640 5641 5643 5644 5645 5645 5647 5648 5648 5647 5647 5648 5650 5652
5652 5651 5651 5651 5648 5646 5644 5642 5641 5640 5639 5638 5637 5637 5637 5637 5639 5640 5640 5636 5633 5632 5631 5631 5630 5631 5633 5633 5633 5634 5635 5638 5639 5641 5641 5642 5642 5642 5641 5640 5641 5642 5645
5644 5643 5642 5641 5639 5636 5635 5634 5632 5631 5629 5629 5628 5627 5627 5627 5630 5632 5631 5628 5625 5624 5624 5624 5625 5626 5628 5628 5628 5628 5629 5633 5634 5636 5637 5637 5637 5638 5638 5638 5639 5639 5639
5635 5634 5633 5631 5630 5628 5626 5625 5623 5622 5622 5621 5620 5619 5618 5618 5619 5620 5621 5618 5616 5615 5615 5616 5617 5620 5621 5623 5625 5625 5627 5629 5629 5630 5631 5632 5633 5633 5634 5636 5637 5636 5635
5628 5627 5625 5623 5622 5620 5618 5616 5615 5614 5613 5612 5612 5611 5610 5609 5609 5609 5609 5608 5608 5607 5606 5606 5608 5611 5614 5617 5620 5622 5624 5624 5623 5624 5624 5624 5626 5627 5628 5628 5629 5630 5630
5626 5625 5622 5620 5616 5614 5612 5609 5607 5606 5604 5604 5603 5603 5602 5602 5601 5601 5601 5600 5598 5596 5595 5595 5596 5599 5604 5609 5613 5617 5618 5617 5617 5617 5617 5617 5617 5619 5619 5620 5620 5621 5621
5627 5624 5621 5618 5614 5611 5608 5605 5602 5599 5597 5596 5596 5595 5594 5594 5593 5593 5591 5589 5588 5586 5583 5582 5583 5587 5593 5600 5605 5608 5610 5611 5611 5611 5611 5611 5611 5611 5611 5611 5611 5611 5612
5629 5625 5622 5618 5613 5610 5606 5601 5598 5595 5592 5591 5590 5589 5588 5587 5586 5584 5582 5581 5579 5577 5575 5572 5573 5578 5584 5591 5596 5601 5604 5605 5605 5606 5606 5606 5605 5604 5603 5603 5603 5602 5602
5632 5628 5623 5618 5614 5610 5606 5601 5597 5594 5591 5590 5588 5586 5585 5583 5582 5580 5578 5577 5576 5576 5574 5571 5572 5576 5582 5586 5591 5595 5598 5599 5600 5600 5601 5600 5599 5598 5597 5597 5596 5596 5595
5635 5630 5624 5620 5615 5610 5606 5602 5597 5595 5592 5590 5587 5585 5583 5581 5579 5577 5575 5574 5573 5575 5574 5574 5576 5578 5581 5583 5587 5591 5592 5593 5595 5595 5594 5593 5593 5592 5591 5591 5590 5590 5589
5637 5632 5626 5621 5616 5611 5607 5602 5598 5595 5591 5589 5587 5584 5581 5578 5574 5572 5571 5571 5570 5571 5572 5573 5575 5577 5579 5581 5584 5586 5588 5589 5590 5590 5589 5587 5586 5585 5584 5583 5582 5581 5580
5639 5633 5628 5623 5618 5613 5608 5603 5599 5595 5590 5587 5585 5583 5580 5575 5570 5566 5566 5566 5566 5567 5568 5570 5572 5574 5577 5579 5581 5583 5585 5585 5585 5585 5583 5582 5580 5579 5577 5576 5574 5573 5572
5642 5638 5632 5626 5621 5615 5611 5606 5600 5596 5593 5590 5587 5582 5578 5574 5569 5565 5564 5564 5565 5566 5568 5570 5572 5574 5576 5578 5580 5582 5582 5582 5582 5581 5580 5579 5577 5575 5572 5570 5568 5566 5564
5645 5640 5635 5628 5623 5618 5613 5608 5603 5599 5595 5592 5588 5584 5581 5576 5572 5569 5568 5568 5569 5570 5570 5571 5572 5573 5575 5577 5578 5579 5580 5579 5578 5577 5576 5575 5573 5570 5567 5564 5561 5558 5556
5648 5641 5636 5630 5626 5621 5616 5610 5606 5601 5598 5595 5591 5588 5585 5582 5579 5576 5575 5573 5573 5572 5572 5573 5573 5573 5573 5575 5576 5577 5577 5577 5576 5575 5573 5571 5569 5566 5562 5559 5555 5552 5550
5651 5645 5639 5633 5629 5625 5619 5614 5609 5605 5601 5598 5595 5593 5590 5587 5584 5583 5581 5579 5577 5575 5575 5575 5574 5574 5575 5576 5577 5577 5577 5576 5575 5573 5571 5570 5567 5564 5560 5555 5551 5547 5544
5652 5648 5643 5637 5632 5627 5622 5617 5613 5609 5606 5603 5601 5598 5596 5593 5590 5588 5585 5583 5580 5578 5577 5576 5576 5576 5576 5577 5577 5577 5576 5576 5575 5573 5571 5569 5565 5561 5557 5552 5548 5544 5539
5654 5650 5646 5641 5636 5631 5626 5621 5617 5613 5610 5608 5605 5603 5601 5598 5595 5592 5589 5585 5582 5580 5578 5578 5577 5577 5577 5577 5576 5575 5575 5574 5574 5572 5569 5566 5562 5558 5553 5549 5544 5539 5535
5655 5652 5649 5645 5640 5635 5630 5625 5621 5618 5615 5612 5609 5607 5604 5601 5597 5594 5591 5588 5584 5582 5580 5579 5578 5578 5577 5577 5575 5574 5573 5572 5571 5569 5567 5563 5559 5555 5551 5546 5541 5536 5532